Weather History for KDMN - May, 2013

Change the Weather History Date:

Saturday, May 11, 2013

  Actual Average Record
Temperature  
Mean Temperature 61 °F 68 °F  
Max Temperature 76 °F 86 °F 98 °F (1962)
Min Temperature 46 °F 50 °F 35 °F (1953)
Degree Days  
Heating Degree Days 6    
Growing Degree Days 10 (Base 50)    
Moisture  
Dew Point 37 °F    
Average Humidity 51    
Maximum Humidity 82    
Minimum Humidity 19    
Precipitation  
Precipitation 0.00 in 0.02 in 0.04 in (1987)
Month to date precipitation 0.03 0.27  
Year to date precipitation 0.51 2.25  
Sea Level Pressure  
Sea Level Pressure 30.11 in    
Wind  
Wind Speed 10 mph (East)    
Max Wind Speed 21 mph    
Max Gust Speed 28 mph    
Visibility 10 miles    
Events      
T = Trace of Precipitation, MM = Missing Value Source: NWS Daily Summary

Daily Weather History Graph

Daily Weather History Graph

Search for Another Location

Airport or City:

Trip Planner

Search our weather history database for the weather conditions in past years. The results will help you decide how hot, cold, wet, or windy it might be!

Date:

Astronomy

May. 11, 2013 Rise Set
Actual Time 6:15 AM MDT 7:59 PM MDT
Civil Twilight 5:48 AM MDT 8:26 PM MDT
Nautical Twilight 5:16 AM MDT 8:58 PM MDT
Astronomical Twilight 4:42 AM MDT 9:32 PM MDT
Moon 7:27 AM MDT (5/11) 9:39 PM MDT (5/11)
Length of Visible Light 14h 37m
Length of Day
13h 43m
Waxing Crescent, 3% of the Moon is Illuminated
May 11
Waxing Crescent
May 17
First Quarter
May 24
Full
May 31
Last Quarter
Jun 8
New

Hourly Weather History & Observations

Time (MDT) Temp. Dew Point Humidity Pressure Visibility Wind Dir Wind Speed Gust Speed Precip Events Conditions
12:53 AM 50.0 °F 41.0 °F 71% 30.08 in 10.0 mi East 4.6 mph - N/A   Clear
1:53 AM 48.0 °F 41.0 °F 77% 30.11 in 10.0 mi East 5.8 mph - N/A   Clear
2:53 AM 48.9 °F 41.0 °F 74% 30.12 in 10.0 mi East 8.1 mph - N/A   Clear
3:53 AM 48.9 °F 41.0 °F 74% 30.10 in 10.0 mi East 3.5 mph - N/A   Clear
4:53 AM 46.9 °F 41.0 °F 80% 30.10 in 10.0 mi SSE 6.9 mph - N/A   Clear
5:53 AM 46.9 °F 39.9 °F 77% 30.12 in 10.0 mi East 8.1 mph - N/A   Clear
6:53 AM 48.9 °F 41.0 °F 74% 30.14 in 10.0 mi East 8.1 mph - N/A   Clear
7:53 AM 54.0 °F 43.0 °F 66% 30.15 in 10.0 mi ENE 10.4 mph - N/A   Clear
8:53 AM 60.1 °F 41.0 °F 49% 30.16 in 10.0 mi ENE 13.8 mph - N/A   Clear
9:53 AM 63.0 °F 41.0 °F 45% 30.16 in 10.0 mi East 11.5 mph 20.7 mph N/A   Scattered Clouds
10:53 AM 66.0 °F 39.9 °F 38% 30.16 in 10.0 mi East 15.0 mph 20.7 mph N/A   Mostly Cloudy
11:53 AM 70.0 °F 39.0 °F 32% 30.16 in 10.0 mi East 16.1 mph 26.5 mph N/A   Scattered Clouds
12:53 PM 73.0 °F 37.9 °F 28% 30.13 in 10.0 mi East 17.3 mph 25.3 mph N/A   Scattered Clouds
1:53 PM 73.0 °F 35.1 °F 25% 30.12 in 10.0 mi East 13.8 mph 21.9 mph N/A   Scattered Clouds
2:53 PM 73.0 °F 33.1 °F 23% 30.10 in 10.0 mi East 9.2 mph - N/A   Mostly Cloudy
3:53 PM 73.9 °F 33.1 °F 22% 30.06 in 10.0 mi ENE 10.4 mph 23.0 mph N/A   Partly Cloudy
4:53 PM 73.9 °F 32.0 °F 21% 30.06 in 10.0 mi East 9.2 mph - N/A   Partly Cloudy
5:53 PM 73.0 °F 32.0 °F 22% 30.06 in 10.0 mi East 15.0 mph 24.2 mph N/A   Mostly Cloudy
6:53 PM 73.0 °F 28.9 °F 20% 30.06 in 10.0 mi East 13.8 mph 20.7 mph N/A   Partly Cloudy
8:53 PM 64.9 °F 30.0 °F 27% 30.08 in 10.0 mi East 6.9 mph - N/A   Partly Cloudy
9:53 PM 60.1 °F 28.9 °F 31% 30.10 in 10.0 mi ENE 5.8 mph - N/A   Partly Cloudy
10:53 PM 64.9 °F 34.0 °F 32% 30.11 in 10.0 mi SE 12.7 mph - N/A   Clear
11:53 PM 59.0 °F 36.0 °F 42% 30.12 in 10.0 mi Calm Calm - N/A   Clear